Hourly Data Report for October 16, 2014

All times are specified in Local Standard Time (LST). Add 1 hour to adjust for Daylight Saving Time where and when it is observed.

CHARLOTTETOWN A
PRINCE EDWARD ISLAND

46°17'21.000" N
63°07'09.000" W
48.50 m
8300301
71706
YYG

Download Data

Hourly Data (October 2014)
Hourly Data Report for October 16, 2014
Temp Definition
°C
Dew Point Temp Definition
°C
Rel Hum Definition
%
Wind Dir Definition
10's deg

Wind Spd Definition
km/h
Visibility Definition
km
Stn Press Definition
kPa
Hmdx Definition


Wind Chill Definition


Weather Definition


TIME
00:00 Legend Double Dagger 12.0 8.3 78 8 9 24.1 101.50     LegendNANA
01:00 Legend Double Dagger 11.8 8.5 80 8 6 24.1 101.47     LegendNANA
02:00 Legend Double Dagger 11.8 8.5 80 8 6 24.1 101.45     Cloudy
03:00 Legend Double Dagger 11.5 8.9 84 10 8 24.1 101.43     LegendNANA
04:00 Legend Double Dagger 11.4 9.2 86 8 8 24.1 101.38     LegendNANA
05:00 Legend Double Dagger 11.5 9.4 87 9 10 24.1 101.38     Cloudy
06:00 Legend Double Dagger 11.7 9.8 88 9 13 24.1 101.39     LegendNANA
07:00 Legend Double Dagger 11.9 10.5 91 11 15 16.1 101.39     LegendNANA
08:00 Legend Double Dagger 12.4 11.2 92 10 12 6.4 101.42     Drizzle,Fog
09:00 Legend Double Dagger 12.7 12.2 97 7 10 2.4 101.43     Drizzle,Fog
10:00 Legend Double Dagger 13.0 12.7 98 7 9 1.6 101.45     Drizzle,Fog
11:00 Legend Double Dagger 13.4 13.1 98 8 13 1.2 101.43     Rain,Drizzle,Fog
12:00 Legend Double Dagger 14.1 13.8 98 12 10 2.0 101.37     Rain,Drizzle,Fog
13:00 Legend Double Dagger 14.4 14.1 98 8 11 2.0 101.33     Rain,Drizzle,Fog
14:00 Legend Double Dagger 14.2 13.7 97 11 22 4.8 101.25     Rain,Drizzle,Fog
15:00 Legend Double Dagger 14.7 14.1 96 8 10 12.9 101.32     Rain Showers
16:00 Legend Double Dagger 15.1 14.3 95 6 10 12.9 101.29     Rain Showers
17:00 Legend Double Dagger 15.2 14.1 93 8 8 16.1 101.29     Cloudy
18:00 Legend Double Dagger 15.1 14.0 93 11 12 16.1 101.26     LegendNANA
19:00 Legend Double Dagger 16.1 15.2 94 14 13 16.1 101.30     LegendNANA
20:00 Legend Double Dagger 15.7 14.9 95 13 18 16.1 101.28     Cloudy
21:00 Legend Double Dagger 15.5 14.7 95 13 17 16.1 101.28     LegendNANA
22:00 Legend Double Dagger 15.2 14.4 95 14 20 16.1 101.23     LegendNANA
23:00 Legend Double Dagger 15.1 14.3 95 15 20 19.3 101.21     Cloudy

Notes on Data Quality.

Legend

  • E = Estimated
  • M = Missing
  • NA = Not Available
  • ‡ = Partner data that is not subject to review by the National Climate Archives
Date modified: